Regional Weather Roundup
Issued by NWS Upton, NY

Current Version | Previous Version | Graphics & Text | Print | Product List | Glossary Off
Versions: 1 2 3 4 5 6 7 8 9 10 11 12 13 14 15 16 17 18 19 20 21 22 23 24 25 26 27 28 29 30 31 32 33 34 35 36 37 38 39 40 41 42 43 44 45 46 47 48 49 50

000
ASUS41 KOKX 270305
RWROKX

REGIONAL WEATHER ROUNDUP
NATIONAL WEATHER SERVICE NEW YORK NY
1000 PM EST MON JAN 26 2015

NOTE: "FAIR" INDICATES FEW OR NO CLOUDS BELOW 12,000 FEET WITH NO
SIGNIFICANT WEATHER AND/OR OBSTRUCTIONS TO VISIBILITY.

NYZ071-072-176-178-NJZ106-104-270400-
NEW YORK CITY METRO AREA


CITY           SKY/WX    TMP DP  RH WIND       PRES   REMARKS
CENTRAL PARK   LGT SNOW  26  20  77 NE13G26   29.77F VSB 1   WCI  15
LAGUARDIA APRT LGT SNOW  26  22  84 N18G26    29.76F FOG     WCI  13
KENNEDY INTL   LGT SNOW  27  22  81 N24G36    29.74F WCI  12
NEWARK/LIBERTY LGT SNOW  25  21  85 N21G30    29.76F FOG     WCI  11
BRNX BOT. GARD   N/A    N/A N/A N/A NE12      29.76F
TETERBORO      LGT SNOW  25  19  80 N16       29.77F BLWGSNOWWCI  12
$$

NYZ177-179-078>081-270400-
LONG ISLAND NEW YORK

CITY           SKY/WX    TMP DP  RH WIND       PRES   REMARKS
FARMINGDALE    LGT SNOW  26  22  84 NE26G37   29.70F VSB 3/4 WCI  10
ISLIP          SNOW      26  23  88 N25G36    29.66F VSB 1/2 WCI  11
SHIRLEY        SNOW      27  24  89 N17G33    29.69F VSB 1/2 WCI  14
WESTHAMPTON    SNOW      27  24  89 N24G36    29.67F VSB 1/2 WCI  12
MONTAUK POINT    N/A     31  29  92 N23G40    29.67F WCI  18
$$

NYZ052-065-067-270400-
HUDSON VALLEY

CITY           SKY/WX    TMP DP  RH WIND       PRES   REMARKS
WHITE PLAINS   LGT SNOW  24  19  81 N13G23    29.74F VSB 1   WCI  12
NEWBURGH       CLOUDY    19  16  86 NE15G25   29.84  FOG     WCI   5
MONTGOMERY     LGT SNOW  20  17  88 NE22G29   29.83F FOG     WCI   3
POUGHKEEPSIE   LGT SNOW  19  13  77 N13       29.87F WCI   6
ALBANY         LGT SNOW  16   9  74 N10       29.98F WCI   4
$$

NJZ001-105-106-008-010-013-015-019>022-104-270400-
NEW JERSEY

CITY           SKY/WX    TMP DP  RH WIND       PRES   REMARKS
NEWARK/LIBERTY LGT SNOW  25  21  85 N21G30    29.76F FOG     WCI  11
TETERBORO      LGT SNOW  25  19  80 N16       29.77F BLWGSNOWWCI  12
CALDWELL       CLOUDY    23  16  74 N8        29.79F WCI  14
MORRISTOWN     CLOUDY    25  19  80 NE17G32   29.79F WCI  11
SOMERVILLE     CLOUDY    27  18  69 NE10G26   29.75F WCI  17
SUSSEX         CLOUDY    21  14  74 NE9       29.80F WCI  11
ANDOVER          N/A     19  14  81 NE8G18    29.79F WCI   9
TRENTON        FLURRIES  27  20  75 NE16G25   29.72F WCI  15
MILLVILLE      CLOUDY    30  25  81 NE18G28   29.66F WCI  18
ATLANTIC CITY  CLOUDY    31  27  85 N20G30    29.63F WCI  19
WRIGHTSTOWN    LGT SNOW  28  24  87 N18G25    29.69F FOG     WCI  15
TOMS RIVER     CLOUDY    28  25  86 NE21G29   29.68F WCI  15
BELMAR         CLOUDY    28  21  74 N21G28    29.69F WCI  15
$$

PAZ047>061-062-071-270400-
EASTERN PENNSYLVANIA

CITY           SKY/WX    TMP DP  RH WIND       PRES   REMARKS
PHILADELPHIA   FLURRIES  29  22  75 NE20G30   29.73S WCI  16
ALLENTOWN      CLOUDY    24  17  74 NE17G24   29.77F WCI  11
SCRANTON       CLOUDY    23  15  71 NE10      29.78F WCI  12
$$

CTZ002-004>006-009-010-012-RIZ004-006-007-MAZ004-011-015-270400-
SOUTHERN NEW ENGLAND
 IN CT

CITY           SKY/WX    TMP DP  RH WIND       PRES   REMARKS
BRADLEY INTL   LGT SNOW  20  15  81 N21G30    29.86F WCI   4
HARTFORD       LGT SNOW  21  17  84 N14G22    29.85F VSB 3/4 WCI   8
DANBURY        LGT SNOW  22  16  78 NE13G21   29.80F WCI  10
WTRBRY/OXFORD  CLOUDY    19  10  68 NE21G33   29.74F WCI   3
BRIDGEPORT     LGT SNOW  24  21  88 NE24G33   29.76F FOG     WCI   8
MERIDEN        LGT SNOW  21  17  84 N13G25    29.81F VSB 1   WCI   9
NEW HAVEN      LGT SNOW  23  19  85 N25G31    29.75F FOG     WCI   7
CHESTER        LGT SNOW  25  23  93 N16G26    29.74F VSB 3/4 WCI  12
GROTON         SNOW      28  26  92 NE28G45   29.71F VSB 1/2 WCI  13
WILLIMANTIC    LGT SNOW  23  18  81 N16G26    29.81F WCI  10

 IN RI

CITY           SKY/WX    TMP DP  RH WIND       PRES   REMARKS
PROVIDENCE     LGT SNOW  28  25  88 N24G32    29.79F VSB 3/4 WCI  14
BLOCK ISLAND   CLOUDY    30  27  86 NE32G43   29.65F VSB 1/2 WCI  15
WESTERLY       LGT SNOW  28  26  92 N17G38    29.71F VSB 3/4 WCI  16

 IN MA

CITY           SKY/WX    TMP DP  RH WIND       PRES   REMARKS
BOSTON         LGT SNOW  27  25  92 NE25G37   29.91F VSB 3/4 WCI  12
WORCESTER      SNOW      14  12  92 NE23G38   29.83F VSB 1/2 WCI  -5
WESTFIELD      LGT SNOW  19  14  81 N18G30    29.89F WCI   4
PROVINCETOWN   CLOUDY    30  27  86 NE30G44   29.84F VSB 1   WCI  15
NANTUCKET      LGT SNOW  33  31  92 NE39G55   29.65F VSB 3/4 WCI  17
$$

ANZ330-335-338-340-345-350-353-355-270400-
COASTAL MARINE OBSERVATIONS


STATION/POSITION TIME  SKY/WX   TEMP    WIND        PRES    VSBY  WAVE
                                AIR SEA DIR/SP/G                  HT/PER
                 (UTC)          (F)     (DEG/KT/KT) (MB)    (MI)  (FT/S)
NY HARB ENTRANCE 0300            30 44   30/ 29/ 35 1003.9         10/ 9
4S FIRE IS       0300               39                N/A          10/ 9
20S FIRE ISLAND  0200               41              1003.3         15/ 8
23SW MTP         0300                                 N/A          14/ 8
HUDSON CANYON    NOT AVBL
EXECUTION ROCKS  0300            27 34   30/ 23/ 31   N/A
WESTERN LI SOUND 0300            27      40/ 21/ 25   N/A           5/ 6
CENTRAL LI SOUND 0200            27 36   20/ 27/ 33   N/A           4/ 5
EASTERN LI SOUND NOT AVBL
ROBBINS REEF     0300            27      10/ 23/ 28 1006.2
$$


>>>>>>>>>>>>>>>>>>>>>>>>>>>> KEY <<<<<<<<<<<<<<<<<<<<<<<<<<<
>                                                          <
>     SKY/WX - SKY CONDITION/PRESENT WEATHER               <
>     TMP    - TEMPERATURE IN FAHRENHEIT                   <
>     DP     - DEWPOINT IN FAHRENHEIT                      <
>     RH     - RELATIVE HUMIDITY IN PERCENT                <
>     WIND   - DIRECTION AND SPEED IN MPH                  <
>     PRES   - MEAN SEA LEVEL PRESSURE IN INCHES OF HG     <
>     WCI    - WIND CHILL INDEX                            <
>     VSB    - VISIBILITY IN MILES                         <
>     HX     - HEAT INDEX                                  <
>     TC     - TEMPERATURE IN CELSIUS                      <
>     VRB    - VARIABLE WIND DIRECTION                     <
>                                                          <
>>>>>>>>>>>>>>>>>>>>>>>>>>>> KEY <<<<<<<<<<<<<<<<<<<<<<<<<<<





USA.gov is the U.S. government's official web portal to all federal, state and local government web resources and services.